Regional Weather Roundup
Issued by NWS Lake Charles, LA

Home | Current Version | Previous Version | Text Only | Print | Product List | Glossary On
Versions: 1 2 3 4 5 6 7 8 9 10 11 12 13 14 15 16 17 18 19 20 21 22 23 24 25 26 27
000
ASUS44 KLCH 300110
RWRLCH
REGIONAL WEATHER ROUNDUP
NATIONAL WEATHER SERVICE LAKE CHARLES LA
800 PM CDT MON MAY 29 2017

Note: "fair" indicates few or no clouds below 12,000 feet with no
significant weather and/or obstructions to visibility.


ACROSS SOUTHEAST TEXAS

CITY           SKY/WX    TMP DP  RH WIND       PRES   REMARKS
BEAUMONT       CLOUDY    75  69  81 SE5       29.98S
BEAUMONT CITY  FAIR      77  69  76 MISG      29.99S
ORANGE         CLOUDY    76  71  84 CALM      30.00S
JASPER           N/A     77  74  90 CALM      30.03S
$$

ACROSS CENTRAL LOUISIANA

CITY           SKY/WX    TMP DP  RH WIND       PRES   REMARKS
LEESVILLE      CLOUDY    76  70  83 CALM      30.01S
FULLERTON      FAIR      75  71  87 CALM      30.00R
ALEXANDRIA INT PTCLDY    76  71  85 S10       30.01R
ESLER FIELD    CLOUDY    75  72  90 SW5       30.02R
DERIDDER       FAIR      75  74  95 CALM      30.03S
OAKDALE        CLOUDY    75  72  92 CALM      30.01S
OPELOUSAS      MOCLDY    73  71  92 CALM      30.01F
$$

ACROSS SOUTHWEST AND SOUTH CENTRAL LOUISIANA

CITY           SKY/WX    TMP DP  RH WIND       PRES   REMARKS
SULPHUR        CLOUDY    74  72  92 CALM      29.98F
LAKE CHARLES   CLOUDY    75  75 100 N5        29.98S
CHENNAULT INT  MOCLDY    73  72  94 CALM      29.98F
CAMERON PHI    CLEAR     75  72  88 NE6       29.98R
DEQUINCY       FAIR      75  71  87 CALM      29.99F
JENNINGS       MOCLDY    74  71  92 E3        29.99R
LAFAYETTE      LGT RAIN  74  73  97 NE7       30.01S
NEW IBERIA     LGT RAIN  75  70  84 N9        30.00F
ABBEVILLE      RAIN      73  73 100 N5        30.01S
PATTERSON      LGT RAIN  73  70  90 SE5       30.02R
SALT POINT       N/A     75  71  87 CALM      30.00R
$$

SELECTED SITES ACROSS THE REGION

CITY           SKY/WX    TMP DP  RH WIND       PRES   REMARKS
HOUSTON BUSH   MOCLDY    78  70  76 E10       29.97S
HOUSTON HOBBY  CLOUDY    78  69  73 NE9       29.96F
GALVESTON      CLOUDY    79  72  79 NE12      29.97S
COLLEGE STAT   PTCLDY    80  67  64 E5        29.97S
CONROE         PTCLDY    76  71  85 CALM      29.98F
HUNTSVILLE     PTCLDY    80  67  64 E3        29.99S
LUFKIN         CLOUDY    77  70  79 SE5       29.99S
SHREVEPORT     CLOUDY    79  68  69 SE7       30.00R
MONROE         CLOUDY    78  70  76 N3        30.01R
NATCHEZ MS     CLOUDY    74  70  87 S3        30.04R
BATON ROUGE    CLOUDY    75  70  84 NW5       30.03S
N.O. INTL ARPT TSTM      71  69  93 S7        30.08R FOG
SLIDELL        TSTM      77  72  84 NE5       30.05R
$$

MARINE REPORTS

STATION/POSITION TIME  SKY/WX   TEMP    WIND        PRES    VSBY
                                AIR SEA DIR/SP/G
                 (UTC)          (F)     (DEG/KT/KT) (MB)    (MI)
BUOY 30 S HIGH I 2350            75 79   20/ 10/ 12 1015.1
WVE H/P(F/S)=  3/ 7

SEA RIM ST PARK  0100            75      60/  2/  3 1015.4F
PORT ARTHUR      0042            76 80  100/  3/  5 1015.5F
SABINE PASS N    0042            76 83   10/  4/  5 1016.4F
TEXAS POINT      NOT AVBL
CALCASIEU PASS   0042            75 81   60/  6/  7   N/A
LK CHARLES BEACH 0042            75 78              1015.6F
MARSH ISLAND     0000            78                   N/A
FRESH WATER LOCK 0042            76 82   30/  7/  9 1015.4R
AMERADA PASS     0042            71 76   80/  4/  5 1015.9S
$$




USA.gov is the U.S. government's official web portal to all federal, state and local government web resources and services.